+ View the NASA Portal
+ Center for Near-Earth Object Studies
IMPORTANT:
The SSD Announcement email list is now available. Major changes are coming in the near future, including possible hostname and/or URL changes. To be notified of such changes, subscribe to this email list.
Please visit
this page
for more details.
Don't show this message again
JPL Small-Body Database Browser
Search:
[
help
]
14457 (1993 FR23)
Classification:
Main-belt Asteroid
SPK-ID:
2014457
[
Ephemeris
|
Orbit Diagram
|
Orbital Elements
|
Mission Design
|
Physical Parameters
|
Discovery Circumstances
|
Close-Approach Data
]
[ show orbit diagram ]
Orbital Elements at Epoch 2458600.5 (2019-Apr-27.0) TDB
Reference:
JPL 30
(heliocentric ecliptic J2000)
Element
Value
Uncertainty (1-sigma)
Units
e
.2051616008532706
4.2839e-08
a
2.29311153549036
8.4215e-09
au
q
1.822653101934056
9.7802e-08
au
i
6.365987436235652
5.3232e-06
deg
node
359.6008434708332
3.0449e-05
deg
peri
23.98473127586085
3.2279e-05
deg
M
350.018203358827
1.0571e-05
deg
t
p
2458635.667574198714
(2019-Jun-01.16757420)
3.7293e-05
TDB
period
1268.34147865883
3.47
6.987e-06
1.913e-08
d
yr
n
.2838352336948495
1.5636e-09
deg/d
Q
2.763569969046664
1.0149e-08
au
Orbit Determination Parameters
# obs. used (total)
1542
data-arc span
15392 days (42.14 yr)
first obs. used
1977-10-13
last obs. used
2019-12-04
planetary ephem.
DE431
SB-pert. ephem.
SB431-N16
condition code
0
norm. resid. RMS
.52127
source
ORB
producer
Otto Matic
solution date
2019-Dec-13 23:46:03
Additional Information
Earth MOID
= .826968 au
Jupiter MOID
= 2.70376 au
T_jup
= 3.561
[ show covariance matrix ]
[
Ephemeris
|
Orbit Diagram
|
Orbital Elements
|
Mission Design
|
Physical Parameters
|
Discovery Circumstances
|
Close-Approach Data
]
Physical Parameter Table
Parameter
Symbol
Value
Units
Sigma
Reference
Notes
absolute magnitude
H
14.1
n/a
MPO350918
diameter
diameter
3.450
km
0.527
urn:nasa:pds:neowise_diameters_albedos::2.0[mainbelt] (http://adsabs.harvard.edu/abs/2011ApJ...741...68M)
geometric albedo
albedo
0.409
0.086
urn:nasa:pds:neowise_diameters_albedos::2.0[mainbelt] (http://adsabs.harvard.edu/abs/2011ApJ...741...68M)
14457 (1993 FR23)
Discovered 1993-Mar-21 by UESAC at La Silla
Reference:
20000418/Numbers.arc
Last Updated:
2004-04-19
[ show close-approach data ]
Alternate Designations
1993 FR23
= 1977 TA4 = 1984 WG2
[
Ephemeris
|
Orbit Diagram
|
Orbital Elements
|
Mission Design
|
Physical Parameters
|
Discovery Circumstances
|
Close-Approach Data
]
2019-Dec-16 14:06 UT
(server date/time)
Site Manager:
Ryan S. Park
Webmaster
:
Alan B. Chamberlin